Sheridan, WY

7:57 AM MDT on April 23, 2018 (GMT -0600)
Sheridan County

Weather History for KSHR - January, 2013

Change the Weather History Date:

Sunday, January 27, 2013

  Actual Average Record
Temperature  
Mean Temperature 31 °F 24 °F  
Max Temperature 36 °F 37 °F 58 °F (1988)
Min Temperature 26 °F 12 °F -28 °F (1918)
Degree Days  
Heating Degree Days 34 41  
Month to date heating degree days 1045 1116  
Since 1 July heating degree days 4000 4299  
Cooling Degree Days 0 0  
Month to date cooling degree days 0 0  
Year to date cooling degree days 0 0  
Moisture  
Dew Point 29 °F    
Average Humidity 88    
Maximum Humidity 100    
Minimum Humidity 75    
Precipitation  
Precipitation 0.35 in 0.02 in 0.72 in (2000)
Month to date precipitation 0.40 0.48  
Year to date precipitation 0.40 0.48  
Sea Level Pressure  
Sea Level Pressure 29.78 in    
Wind  
Wind Speed 8 mph (NW)    
Max Wind Speed 25 mph    
Max Gust Speed 31 mph    
Visibility 5 miles    
Events Fog , Snow    
T = Trace of Precipitation, MM = Missing Value Source: NWS Daily Summary

Daily Weather History Graph

Daily Weather History Graph

Search for Another Location

Airport or City:

Astronomy

Jan. 27, 2013 Rise Set
Actual Time 7:32 AM MST 5:09 PM MST
Civil Twilight 7:00 AM MST 5:41 PM MST
Nautical Twilight 6:25 AM MST 6:16 PM MST
Astronomical Twilight 5:50 AM MST 6:51 PM MST
Moon 6:11 PM MST (1/27) 7:22 AM MST (1/27)
Length of Visible Light 10h 40m
Length of Day
9h 37m
Full, 100% of the Moon is Illuminated
Jan 27
Full
Feb 3
Last Quarter
Feb 10
New
Feb 17
First Quarter
Feb 25
Full

Hourly Weather History & Observations

Time (MST) Temp. Windchill Dew Point Humidity Pressure Visibility Wind Dir Wind Speed Gust Speed Precip Events Conditions
12:53 AM 28.9 °F - 24.1 °F 82% 29.69 in 10.0 mi Calm Calm - N/A   Clear
1:53 AM 28.0 °F - 24.1 °F 85% 29.67 in 10.0 mi Calm Calm - N/A   Clear
2:53 AM 27.0 °F 20.5 °F 23.0 °F 85% 29.68 in 10.0 mi SW 5.8 mph - N/A   Clear
3:53 AM 30.0 °F 20.5 °F 24.1 °F 79% 29.70 in 10.0 mi NNW 11.5 mph - N/A   Clear
4:53 AM 33.1 °F 22.2 °F 26.1 °F 75% 29.73 in 10.0 mi NW 17.3 mph - N/A   Clear
5:53 AM 32.0 °F 20.8 °F 28.0 °F 85% 29.77 in 10.0 mi NW 17.3 mph - N/A   Clear
6:53 AM 32.0 °F 21.6 °F 28.9 °F 88% 29.81 in 10.0 mi NW 15.0 mph - N/A   Scattered Clouds
7:08 AM 33.8 °F 22.5 °F 28.4 °F 81% 29.75 in 10.0 mi WNW 19.6 mph - N/A   Mostly Cloudy
7:25 AM 32.0 °F 22.1 °F 30.2 °F 93% 29.75 in 10.0 mi NW 13.8 mph - N/A   Overcast
7:53 AM 32.0 °F 22.5 °F 30.0 °F 92% 29.83 in 10.0 mi NW 12.7 mph - N/A   Overcast
8:04 AM 33.8 °F 25.3 °F 30.2 °F 87% 29.75 in 10.0 mi NNW 11.5 mph - N/A   Overcast
8:49 AM 33.8 °F 25.3 °F 30.2 °F 87% 29.76 in 10.0 mi NNW 11.5 mph - N/A   Overcast
8:53 AM 33.1 °F 24.4 °F 30.9 °F 92% 29.85 in 10.0 mi NNW 11.5 mph - N/A   Overcast
9:16 AM 33.8 °F 25.8 °F 30.2 °F 87% 29.76 in 10.0 mi NW 10.4 mph - N/A   Overcast
9:38 AM 33.8 °F 26.4 °F 30.2 °F 87% 29.77 in 10.0 mi NW 9.2 mph - N/A   Overcast
9:53 AM 34.0 °F 26.0 °F 30.9 °F 89% 29.85 in 10.0 mi NW 10.4 mph - N/A   Overcast
10:10 AM 33.8 °F 24.8 °F 30.2 °F 87% 29.77 in 10.0 mi WNW 12.7 mph - N/A   Overcast
10:53 AM 34.0 °F 26.6 °F 30.9 °F 89% 29.86 in 10.0 mi WNW 9.2 mph - N/A   Overcast
11:53 AM 35.1 °F 28.6 °F 32.0 °F 89% 29.83 in 10.0 mi West 8.1 mph - N/A   Overcast
12:38 PM 35.6 °F 30.7 °F 30.2 °F 81% 29.75 in 10.0 mi NW 5.8 mph - 0.00 in Snow Light Snow
12:53 PM 35.1 °F 29.3 °F 32.0 °F 89% 29.83 in 8.0 mi NW 6.9 mph - 0.01 in Snow Light Snow
1:22 PM 33.8 °F 27.0 °F 32.0 °F 93% 29.73 in 8.0 mi NW 8.1 mph - 0.00 in Snow Light Snow
1:35 PM 33.8 °F 27.7 °F 32.0 °F 93% 29.74 in 9.0 mi NW 6.9 mph - 0.00 in   Overcast
1:50 PM 33.8 °F 27.7 °F 32.0 °F 93% 29.74 in 10.0 mi NNW 6.9 mph - 0.00 in   Overcast
1:53 PM 34.0 °F 28.0 °F 32.0 °F 92% 29.83 in 10.0 mi NNW 6.9 mph - 0.00 in   Overcast
2:25 PM 33.8 °F 27.7 °F 30.2 °F 87% 29.73 in 4.0 mi North 6.9 mph - 0.01 in Snow Light Snow
2:32 PM 33.8 °F 28.6 °F 32.0 °F 93% 29.74 in 6.0 mi North 5.8 mph - 0.01 in Snow Light Snow
2:53 PM 33.1 °F 30.0 °F 32.0 °F 96% 29.83 in 3.0 mi North 3.5 mph - 0.01 in Snow Light Snow
3:06 PM 33.8 °F 27.7 °F 30.2 °F 87% 29.73 in 2.5 mi NNW 6.9 mph - 0.00 in Snow Light Snow
3:17 PM 33.8 °F 27.7 °F 30.2 °F 87% 29.74 in 1.8 mi NNW 6.9 mph - 0.00 in Snow Light Snow
3:24 PM 33.8 °F 27.7 °F 30.2 °F 87% 29.74 in 2.5 mi NW 6.9 mph - 0.00 in Snow Light Snow
3:44 PM 32.0 °F 25.6 °F 30.2 °F 93% 29.74 in 1.8 mi NW 6.9 mph - 0.01 in Snow Light Snow
3:53 PM 32.0 °F 24.8 °F 30.9 °F 96% 29.83 in 1.5 mi NW 8.1 mph - 0.01 in Snow Light Snow
4:22 PM 32.0 °F 25.6 °F 30.2 °F 93% 29.73 in 2.0 mi NW 6.9 mph - 0.01 in Snow Light Snow
4:33 PM 32.0 °F 26.4 °F 30.2 °F 93% 29.73 in 2.5 mi NW 5.8 mph - 0.01 in Snow Light Snow
4:44 PM 32.0 °F 24.8 °F 30.2 °F 93% 29.73 in 3.0 mi NW 8.1 mph - 0.01 in   Overcast
4:53 PM 32.0 °F 25.6 °F 30.9 °F 96% 29.81 in 2.0 mi NW 6.9 mph - 0.01 in Snow Light Snow
5:06 PM 32.0 °F 25.6 °F 30.2 °F 93% 29.73 in 1.2 mi NNW 6.9 mph - 0.00 in Snow Light Snow
5:12 PM 30.2 °F 23.4 °F 30.2 °F 100% 29.73 in 3.0 mi NW 6.9 mph - 0.00 in Snow Light Snow
5:45 PM 30.2 °F 23.4 °F 30.2 °F 100% 29.74 in 9.0 mi NNW 6.9 mph - 0.00 in   Overcast
5:53 PM 30.9 °F 27.5 °F 30.0 °F 96% 29.82 in 7.0 mi NNW 3.5 mph - 0.00 in   Overcast
6:00 PM 30.2 °F 24.3 °F 30.2 °F 100% 29.74 in 6.0 mi NNW 5.8 mph - 0.01 in   Overcast
6:27 PM 30.2 °F 24.3 °F 30.2 °F 100% 29.74 in 2.0 mi North 5.8 mph - 0.01 in Snow Light Snow
6:29 PM 30.2 °F 24.3 °F 30.2 °F 100% 29.74 in 1.5 mi North 5.8 mph - 0.02 in Snow Light Snow
6:53 PM 30.9 °F 24.3 °F 30.0 °F 96% 29.83 in 1.2 mi NNW 6.9 mph - 0.04 in Snow Light Snow
7:21 PM 30.2 °F 21.9 °F 28.4 °F 93% 29.75 in 0.8 mi North 9.2 mph - 0.03 in Snow Light Snow
7:53 PM 28.9 °F 20.4 °F 28.0 °F 96% 29.83 in 1.0 mi NNE 9.2 mph - 0.06 in Snow Light Snow
8:12 PM 28.4 °F 23.3 °F 28.4 °F 100% 29.76 in 1.5 mi North 4.6 mph - 0.01 in Snow Light Snow
8:18 PM 28.4 °F 23.3 °F 28.4 °F 100% 29.77 in 2.0 mi North 4.6 mph - 0.02 in Snow Light Snow
8:23 PM 28.4 °F 23.3 °F 28.4 °F 100% 29.77 in 2.5 mi North 4.6 mph - 0.02 in Snow Light Snow
8:37 PM 28.4 °F 23.3 °F 28.4 °F 100% 29.78 in 1.0 mi NNW 4.6 mph - 0.02 in Snow Light Snow
8:41 PM 28.4 °F 23.3 °F 28.4 °F 100% 29.78 in 0.5 mi NNW 4.6 mph - 0.03 in Fog , Snow Snow
8:53 PM 28.9 °F 23.9 °F 28.0 °F 96% 29.87 in 0.5 mi NW 4.6 mph - 0.07 in Fog , Snow Snow
9:04 PM 28.4 °F 23.3 °F 28.4 °F 100% 29.79 in 0.8 mi WNW 4.6 mph - 0.01 in Snow Light Snow
9:21 PM 28.4 °F 22.2 °F 28.4 °F 100% 29.77 in 1.0 mi NNW 5.8 mph - 0.03 in Snow Light Snow
9:44 PM 28.4 °F 22.2 °F 28.4 °F 100% 29.78 in 1.2 mi WNW 5.8 mph - 0.04 in Snow Light Snow
9:53 PM 28.9 °F 22.8 °F 28.0 °F 96% 29.87 in 1.0 mi WNW 5.8 mph - 0.05 in Snow Light Snow
10:04 PM 28.4 °F 22.2 °F 28.4 °F 100% 29.78 in 0.8 mi NW 5.8 mph - 0.00 in Snow Light Snow
10:34 PM 28.4 °F 24.6 °F 28.4 °F 100% 29.77 in 1.0 mi North 3.5 mph - 0.04 in Snow Light Snow
10:42 PM 28.4 °F - 28.4 °F 100% 29.77 in 0.8 mi Calm Calm - 0.05 in Snow Light Snow
10:50 PM 28.4 °F - 26.6 °F 93% 29.78 in 1.0 mi Calm Calm - 0.05 in Snow Light Snow
10:51 PM 28.4 °F - 26.6 °F 93% 29.78 in 1.0 mi Calm Calm - 0.05 in Snow Light Snow
10:53 PM 28.9 °F - 27.0 °F 92% 29.86 in 1.2 mi Calm Calm - 0.05 in Snow Light Snow
11:16 PM 28.4 °F - 28.4 °F 100% 29.79 in 1.0 mi Calm Calm - 0.02 in Snow Light Snow
11:33 PM 28.4 °F 21.2 °F 26.6 °F 93% 29.79 in 1.2 mi NNW 6.9 mph - 0.03 in Snow Light Snow
11:53 PM 28.0 °F 21.7 °F 27.0 °F 96% 29.87 in 1.5 mi NNW 5.8 mph - 0.04 in Snow Light Snow